FW8979 Weather Reports


Display with metric or nautical units.
time (UTC)temp
F
wind
direction
speed
MPH
gust
MPH
rain 1hr
in
rain 24hr
in
rain mn
in
humidity
%
barometer
mb
20260510115605 58 137 0.0 0.0 0.00 0.00 0.00 99 1006.4
20260510115102 57 156 0.0 0.0 0.00 0.00 0.00 99 1006.1
20260510114558 57 180 1.0 1.0 0.00 0.00 0.00 99 1006.4
20260510114054 57 159 0.0 0.0 0.00 0.00 0.00 99 1006.4
20260510113549 57 134 0.0 0.0 0.00 0.00 0.00 99 1006.3
20260510113047 57 157 0.0 0.0 0.00 0.00 0.00 99 1006.0
20260510112544 56 154 0.0 0.0 0.00 0.00 0.00 99 1005.8
20260510112040 56 130 0.0 0.0 0.00 0.00 0.00 99 1005.7
20260510111537 56 117 0.0 0.0 0.00 0.00 0.00 99 1005.8
20260510111033 56 144 0.0 0.0 0.00 0.00 0.00 99 1005.7
20260510110529 56 125 0.0 0.0 0.00 0.00 0.00 99 1005.7
20260510110026 56 145 0.0 0.0 0.00 0.00 0.00 99 1005.5
20260510105521 55 107 0.0 0.0 0.00 0.00 0.00 99 1005.4
20260510105016 55 131 0.0 1.0 0.00 0.00 0.00 99 1005.3
20260510104513 55 153 0.0 0.0 0.00 0.00 0.00 99 1005.5
20260510104009 55 153 0.0 0.0 0.00 0.00 0.00 99 1005.4
20260510103507 55 163 0.0 0.0 0.00 0.00 0.00 99 1005.2
20260510103002 54 122 0.0 0.0 0.00 0.00 0.00 99 1005.3
20260510102458 54 122 0.0 0.0 0.00 0.00 0.00 99 1005.3
20260510101955 54 121 0.0 0.0 0.00 0.00 0.00 99 1005.2
20260510101452 55 121 0.0 0.0 0.00 0.00 0.00 99 1005.1
20260510100951 54 122 0.0 0.0 0.00 0.00 0.00 99 1005.3
20260510100446 53 121 0.0 0.0 0.00 0.00 0.00 99 1005.2
20260510095943 53 121 0.0 0.0 0.00 0.00 0.00 99 1005.0
20260510095439 53 121 0.0 0.0 0.00 0.00 0.00 99 1005.0
20260510094938 54 121 0.0 0.0 0.00 0.00 0.00 99 1005.1
20260510094433 54 121 0.0 0.0 0.00 0.00 0.00 99 1004.9
20260510093929 54 121 0.0 0.0 0.00 0.00 0.00 99 1004.8
20260510093424 54 121 0.0 0.0 0.00 0.00 0.00 99 1004.8
20260510092921 54 121 0.0 0.0 0.00 0.00 0.00 99 1004.8
20260510092419 54 121 0.0 0.0 0.00 0.00 0.00 99 1004.7
20260510091918 55 121 0.0 0.0 0.00 0.00 0.00 99 1004.9
20260510091416 55 121 0.0 0.0 0.00 0.00 0.00 99 1004.5
20260510090912 55 122 0.0 0.0 0.00 0.00 0.00 99 1004.4
20260510090409 55 121 0.0 0.0 0.00 0.00 0.00 99 1004.5
20260510085905 55 121 0.0 0.0 0.00 0.00 0.00 98 1004.6
20260510085400 55 121 0.0 0.0 0.00 0.00 0.00 99 1004.4
20260510084855 55 122 0.0 0.0 0.00 0.00 0.00 99 1004.5
20260510084354 55 121 0.0 0.0 0.00 0.00 0.00 98 1004.6
20260510083850 56 121 0.0 0.0 0.00 0.00 0.00 98 1004.3
20260510083346 57 122 0.0 0.0 0.00 0.00 0.00 98 1004.6
20260510082842 56 122 0.0 0.0 0.00 0.00 0.00 99 1004.4
20260510082340 56 122 0.0 0.0 0.00 0.00 0.00 98 1004.3
20260510081838 56 121 0.0 0.0 0.00 0.00 0.00 98 1004.2
20260510081334 57 121 0.0 0.0 0.00 0.00 0.00 98 1003.9
20260510080831 57 122 0.0 0.0 0.00 0.00 0.00 98 1004.2
20260510080325 57 122 0.0 0.0 0.00 0.00 0.00 98 1004.2
20260510075823 56 121 0.0 0.0 0.00 0.00 0.00 98 1004.0
20260510075320 57 121 0.0 0.0 0.00 0.00 0.00 98 1003.9
20260510074816 56 121 0.0 0.0 0.00 0.00 0.00 98 1003.9
20260510074314 57 121 0.0 0.0 0.00 0.00 0.00 98 1003.9
20260510073810 58 121 0.0 1.0 0.00 0.00 0.00 98 1003.9
20260510073306 58 122 0.0 0.0 0.00 0.00 0.00 98 1003.9
20260510072802 58 121 0.0 0.0 0.00 0.00 0.00 98 1003.6
20260510072259 58 116 0.0 0.0 0.00 0.00 0.00 98 1003.7
20260510071754 57 116 0.0 0.0 0.00 0.00 0.00 98 1003.8
20260510071251 57 113 0.0 0.0 0.00 0.00 0.00 98 1003.6
20260510070750 58 121 0.0 0.0 0.00 0.00 0.00 98 1003.8
20260510070247 58 222 0.0 1.0 0.00 0.00 0.00 98 1003.8
20260510065741 57 137 0.0 0.0 0.00 0.00 0.00 98 1003.6
20260510065238 56 136 0.0 0.0 0.00 0.00 0.00 98 1003.6
20260510064734 55 136 0.0 0.0 0.00 0.00 0.00 98 1003.8
20260510064232 55 136 0.0 0.0 0.00 0.00 0.00 98 1003.9
20260510063728 55 136 0.0 0.0 0.00 0.00 0.00 97 1003.9
20260510063225 55 136 0.0 0.0 0.00 0.00 0.00 97 1003.9
20260510062721 55 136 0.0 0.0 0.00 0.00 0.00 97 1003.9
20260510062217 55 136 0.0 0.0 0.00 0.00 0.00 97 1003.9
20260510061713 55 136 0.0 0.0 0.00 0.00 0.00 97 1003.8
20260510061210 55 136 0.0 0.0 0.00 0.00 0.00 97 1003.9
20260510060707 55 136 0.0 0.0 0.00 0.00 0.00 96 1003.8
20260510060203 55 136 0.0 0.0 0.00 0.00 0.00 97 1004.0
20260510055700 55 136 0.0 0.0 0.00 0.00 0.00 96 1004.1
20260510055158 55 136 0.0 0.0 0.00 0.00 0.00 96 1003.8
20260510054653 56 136 0.0 0.0 0.00 0.00 0.00 96 1004.0
20260510054149 56 136 0.0 0.0 0.00 0.00 0.00 96 1004.1
20260510053648 56 136 0.0 0.0 0.00 0.00 0.00 95 1004.0
20260510053145 57 136 0.0 0.0 0.00 0.00 0.00 95 1004.0
20260510052641 57 136 0.0 0.0 0.00 0.00 0.00 94 1003.8
20260510052137 57 136 0.0 0.0 0.00 0.00 0.00 93 1003.8
20260510051633 58 136 0.0 0.0 0.00 0.00 0.00 93 1003.9
20260510051130 58 137 1.0 1.0 0.00 0.00 0.00 92 1003.9
20260510050627 58 144 0.0 0.0 0.00 0.00 0.00 91 1003.8
20260510050124 59 147 0.0 0.0 0.00 0.00 0.00 91 1004.0
20260510045621 59 151 0.0 0.0 0.00 0.00 0.00 91 1003.8
20260510045117 59 137 0.0 0.0 0.00 0.00 0.00 91 1003.9
20260510044613 59 141 0.0 0.0 0.00 0.00 0.00 91 1003.9
20260510044111 59 161 0.0 0.0 0.00 0.00 0.00 91 1003.9
20260510043606 59 158 0.0 1.0 0.00 0.00 0.00 91 1003.7
20260510043103 59 141 0.0 1.0 0.00 0.00 0.00 92 1003.7
20260510042601 59 116 0.0 0.0 0.00 0.00 0.00 92 1003.6
20260510042057 59 117 0.0 0.0 0.00 0.00 0.00 91 1003.9
20260510041554 59 133 0.0 0.0 0.00 0.00 0.00 90 1003.6
20260510041051 59 161 0.0 0.0 0.00 0.00 0.00 90 1003.8
20260510040548 59 122 0.0 0.0 0.00 0.00 0.00 90 1003.7
20260510040044 59 122 0.0 0.0 0.00 0.00 0.00 90 1003.7
20260510035540 59 131 0.0 1.0 0.00 0.00 0.00 90 1003.6
20260510035040 58 112 0.0 0.0 0.00 0.00 0.00 90 1003.9
20260510034539 58 139 0.0 0.0 0.00 0.00 0.00 90 1003.6
20260510034035 58 143 0.0 1.0 0.00 0.00 0.00 91 1003.7
20260510033531 57 162 0.0 0.0 0.00 0.00 0.00 92 1003.8
20260510033029 57 136 0.0 0.0 0.00 0.00 0.00 91 1003.6
20260510032525 58 136 0.0 0.0 0.00 0.00 0.00 91 1003.6
20260510032020 58 136 0.0 0.0 0.00 0.00 0.00 90 1003.5
20260510031516 59 136 0.0 0.0 0.00 0.00 0.00 88 1003.6
20260510031012 59 136 0.0 0.0 0.00 0.00 0.00 87 1003.4
20260510030508 59 137 0.0 0.0 0.00 0.00 0.00 87 1003.5
20260510030005 59 151 0.0 0.0 0.00 0.00 0.00 86 1003.5
20260510025502 59 121 0.0 0.0 0.00 0.00 0.00 88 1003.4
20260510025000 59 121 0.0 0.0 0.00 0.00 0.00 87 1003.5
20260510024456 59 120 0.0 0.0 0.00 0.00 0.00 89 1003.3
20260510023952 59 120 0.0 0.0 0.00 0.00 0.00 88 1003.1
20260510023449 59 121 0.0 0.0 0.00 0.00 0.00 87 1002.9
20260510022946 59 121 0.0 0.0 0.00 0.00 0.00 86 1003.0
20260510022445 59 89 0.0 0.0 0.00 0.00 0.00 86 1002.8
20260510021944 59 88 0.0 0.0 0.00 0.00 0.00 86 1002.7
20260510021442 60 89 0.0 0.0 0.00 0.00 0.00 85 1002.9
20260510020938 60 89 0.0 0.0 0.00 0.00 0.00 85 1002.9
20260510020433 60 88 0.0 0.0 0.00 0.00 0.00 85 1002.6
20260510015929 60 88 0.0 0.0 0.00 0.00 0.00 83 1002.6
20260510015425 61 91 0.0 0.0 0.00 0.00 0.00 83 1002.5
20260510014920 62 91 0.0 0.0 0.00 0.00 0.00 81 1002.4
20260510014418 61 90 0.0 0.0 0.00 0.00 0.00 81 1002.3
20260510013914 62 90 0.0 0.0 0.00 0.00 0.00 80 1002.2
20260510013409 62 90 0.0 0.0 0.00 0.00 0.00 79 1002.1
20260510012904 62 89 0.0 0.0 0.00 0.00 0.00 79 1002.0
20260510012400 62 89 0.0 0.0 0.00 0.00 0.00 79 1002.1
20260510011854 63 85 0.0 1.0 0.00 0.00 0.00 78 1002.1
20260510011350 63 112 0.0 0.0 0.00 0.00 0.00 75 1001.9
20260510010846 63 112 0.0 0.0 0.00 0.00 0.00 74 1002.0
20260510010344 63 112 0.0 0.0 0.00 0.00 0.00 74 1001.7
20260510005840 64 112 0.0 0.0 0.00 0.00 0.00 72 1001.7
20260510005337 65 112 0.0 0.0 0.00 0.00 0.00 71 1001.7
20260510004834 66 112 0.0 0.0 0.00 0.00 0.00 69 1001.6
20260510004332 67 112 0.0 0.0 0.00 0.00 0.00 71 1001.5
20260510003829 68 112 0.0 0.0 0.00 0.00 0.00 70 1001.6
20260510003326 68 112 0.0 0.0 0.00 0.00 0.00 68 1001.5
20260510002825 69 80 0.0 1.0 0.00 0.00 0.00 66 1001.5
20260510002322 71 79 0.0 0.0 0.00 0.00 0.00 67 1001.4
20260510001819 73 47 0.0 0.0 0.00 0.00 0.00 58 1001.3
20260510001317 74 47 0.0 0.0 0.00 0.00 0.00 60 1001.4
20260510000813 76 46 0.0 0.0 0.00 0.00 0.00 52 1001.3
20260510000311 76 16 0.0 1.0 0.00 0.00 0.00 51 1001.2
20260509235808 77 292 3.0 3.0 0.00 0.00 0.00 45 1001.5
20260509235306 78 344 3.0 3.0 0.00 0.00 0.00 44 1001.4
20260509234800 78 302 2.0 2.0 0.00 0.00 0.00 46 1001.3
20260509234256 78 314 3.0 5.0 0.00 0.00 0.00 46 1001.4
20260509233755 79 295 3.0 3.0 0.00 0.00 0.00 45 1001.2
20260509233252 79 345 2.0 2.0 0.00 0.00 0.00 46 1001.2
20260509232748 79 270 2.0 2.0 0.00 0.00 0.00 47 1001.1
20260509232246 79 244 2.0 3.0 0.00 0.00 0.00 45 1001.2
20260509231742 80 220 2.0 2.0 0.00 0.00 0.00 46 1001.1
20260509231239 80 301 1.0 2.0 0.00 0.00 0.00 45 1001.2
20260509230736 80 318 3.0 3.0 0.00 0.00 0.00 43 1001.1
20260509230233 79 227 1.0 2.0 0.00 0.00 0.00 45 1000.9
20260509225728 80 355 1.0 2.0 0.00 0.00 0.00 45 1001.0
20260509225224 79 220 1.0 1.0 0.00 0.00 0.00 49 1000.7
20260509224720 79 322 3.0 5.0 0.00 0.00 0.00 47 1000.7
20260509224217 79 315 2.0 2.0 0.00 0.00 0.00 48 1000.8
20260509223714 79 0 4.0 5.0 0.00 0.00 0.00 48 1000.8
20260509223211 78 296 2.0 2.0 0.00 0.00 0.00 49 1000.7
20260509222708 78 233 4.0 5.0 0.00 0.00 0.00 49 1000.8
20260509222203 79 275 1.0 2.0 0.00 0.00 0.00 48 1000.7
20260509221659 78 310 4.0 5.0 0.00 0.00 0.00 50 1000.9
20260509221155 79 302 3.0 5.0 0.00 0.00 0.00 48 1000.8
20260509220652 77 329 3.0 3.0 0.00 0.00 0.00 50 1000.9
20260509220148 77 341 2.0 2.0 0.00 0.00 0.00 51 1000.8
20260509215644 79 343 5.0 7.0 0.00 0.00 0.00 51 1000.7
20260509215141 79 341 5.0 6.0 0.00 0.00 0.00 52 1000.8
20260509214638 79 261 3.0 3.0 0.00 0.00 0.00 51 1001.0
20260509214135 79 302 3.0 3.0 0.00 0.00 0.00 51 1000.8
20260509213631 78 244 2.0 2.0 0.00 0.00 0.00 52 1000.9
20260509213127 78 327 5.0 6.0 0.00 0.00 0.00 54 1000.8
20260509212625 78 231 1.0 1.0 0.00 0.00 0.00 56 1000.7
20260509212122 78 336 5.0 7.0 0.00 0.00 0.00 53 1000.7
20260509211618 77 222 1.0 1.0 0.00 0.00 0.00 53 1000.8
20260509211114 75 44 1.0 1.0 0.00 0.00 0.00 60 1000.9
20260509210611 76 106 1.0 1.0 0.00 0.00 0.00 58 1000.7
20260509210108 76 196 1.0 1.0 0.00 0.00 0.00 60 1000.7
20260509205602 77 74 0.0 0.0 0.00 0.00 0.00 58 1000.9
20260509205057 77 285 3.0 3.0 0.00 0.00 0.00 58 1000.7
20260509204554 76 344 5.0 6.0 0.00 0.00 0.00 60 1000.8
20260509204051 75 311 0.0 1.0 0.00 0.00 0.00 62 1000.8
20260509203546 75 307 2.0 2.0 0.00 0.00 0.00 63 1000.8
20260509203044 75 161 2.0 2.0 0.00 0.00 0.00 63 1000.9
20260509202539 75 182 2.0 2.0 0.00 0.00 0.00 62 1000.7
20260509202035 76 151 0.0 1.0 0.00 0.00 0.00 61 1000.7
20260509201530 76 279 1.0 1.0 0.00 0.00 0.00 62 1000.9
20260509201028 75 201 2.0 2.0 0.00 0.00 0.00 63 1001.2
20260509200527 74 201 1.0 1.0 0.00 0.00 0.00 64 1001.2
20260509200024 76 169 2.0 2.0 0.00 0.00 0.00 64 1000.9
20260509195520 77 287 2.0 3.0 0.00 0.00 0.00 60 1001.1
20260509195019 77 299 2.0 2.0 0.00 0.00 0.00 61 1001.2
20260509194515 77 214 5.0 6.0 0.00 0.00 0.00 61 1001.3
20260509194012 76 234 1.0 2.0 0.00 0.00 0.00 64 1001.3
20260509193507 77 169 5.0 7.0 0.00 0.00 0.00 62 1001.4
20260509193004 77 186 5.0 7.0 0.00 0.00 0.00 60 1001.7
20260509192500 77 166 1.0 2.0 0.00 0.00 0.00 62 1001.7
20260509191954 75 234 1.0 1.0 0.00 0.00 0.00 64 1001.3
20260509191450 75 228 2.0 3.0 0.00 0.00 0.00 62 1001.5
20260509190946 75 249 2.0 2.0 0.00 0.00 0.00 63 1001.5
20260509190443 77 178 7.0 8.0 0.00 0.00 0.00 60 1001.6
20260509185941 75 164 2.0 3.0 0.00 0.00 0.00 64 1001.5
20260509185438 74 297 3.0 5.0 0.00 0.00 0.00 66 1001.6
20260509184935 75 273 2.0 5.0 0.00 0.00 0.00 65 1001.7
20260509184433 75 241 2.0 2.0 0.00 0.00 0.00 63 1002.0
20260509183929 75 320 2.0 3.0 0.00 0.00 0.00 64 1001.6
20260509183423 73 182 2.0 2.0 0.00 0.00 0.00 70 1001.8
20260509182920 72 183 1.0 1.0 0.00 0.00 0.00 69 1001.7
20260509182416 73 184 3.0 3.0 0.00 0.00 0.00 66 1001.6
20260509181914 72 184 0.0 0.0 0.00 0.00 0.00 66 1001.6
20260509181412 74 259 3.0 5.0 0.00 0.00 0.00 66 1001.7
20260509180909 74 212 3.0 5.0 0.00 0.00 0.00 66 1001.6
20260509180404 72 222 2.0 3.0 0.00 0.00 0.00 70 1001.6
20260509175901 73 317 6.0 7.0 0.00 0.00 0.00 67 1001.6
20260509175357 72 169 3.0 3.0 0.00 0.00 0.00 69 1001.3
20260509174854 72 157 5.0 7.0 0.00 0.00 0.00 70 1001.5
20260509174350 73 122 3.0 3.0 0.00 0.00 0.00 70 1001.3
20260509173846 73 176 2.0 2.0 0.00 0.00 0.00 69 1001.6
20260509173341 72 222 3.0 3.0 0.00 0.00 0.00 70 1001.5
20260509172837 72 154 3.0 3.0 0.00 0.00 0.00 73 1001.5
20260509172334 72 189 1.0 2.0 0.00 0.00 0.00 71 1001.7
20260509171830 73 106 3.0 3.0 0.00 0.00 0.00 67 1001.3
20260509171326 73 215 1.0 2.0 0.00 0.00 0.00 69 1001.5
20260509170823 72 334 2.0 2.0 0.00 0.00 0.00 69 1001.7
20260509170318 71 278 2.0 2.0 0.00 0.00 0.00 70 1001.9
20260509165818 72 212 5.0 6.0 0.00 0.00 0.00 69 1001.9
20260509165313 71 309 1.0 2.0 0.00 0.00 0.00 70 1001.9
20260509164809 70 226 1.0 2.0 0.00 0.00 0.00 74 1001.9
20260509164306 71 180 2.0 2.0 0.00 0.00 0.00 70 1001.9
20260509163802 72 260 2.0 2.0 0.00 0.00 0.00 72 1001.8
20260509163258 71 226 3.0 5.0 0.00 0.00 0.00 74 1001.8
20260509162758 69 218 1.0 2.0 0.00 0.00 0.00 75 1002.0
20260509162251 70 312 1.0 1.0 0.00 0.00 0.00 73 1002.0
20260509161747 69 173 1.0 2.0 0.00 0.00 0.00 74 1001.7
20260509161243 68 255 3.0 3.0 0.00 0.00 0.00 76 1002.0
20260509160739 69 163 2.0 2.0 0.00 0.00 0.00 73 1002.0
20260509160235 69 205 2.0 2.0 0.00 0.00 0.00 73 1002.0
20260509155731 70 229 2.0 3.0 0.00 0.00 0.00 73 1002.1
20260509155228 69 34 1.0 1.0 0.00 0.00 0.00 75 1002.0
20260509154723 69 144 3.0 3.0 0.00 0.00 0.00 72 1002.0
20260509154221 68 235 1.0 1.0 0.00 0.00 0.00 77 1002.0
20260509153718 68 264 3.0 3.0 0.00 0.00 0.00 77 1002.1
20260509153214 68 309 1.0 2.0 0.00 0.00 0.00 75 1001.9
20260509152710 68 297 3.0 3.0 0.00 0.00 0.00 74 1001.9
20260509152207 69 250 2.0 2.0 0.00 0.00 0.00 76 1001.7
20260509151704 67 195 2.0 2.0 0.00 0.00 0.00 76 1001.8
20260509151201 67 283 5.0 7.0 0.00 0.00 0.00 77 1001.7
20260509150659 68 313 3.0 5.0 0.00 0.00 0.00 76 1001.4
20260509150157 66 201 2.0 2.0 0.00 0.00 0.00 77 1001.5
20260509145653 66 221 2.0 2.0 0.00 0.00 0.00 77 1001.5
20260509145148 67 242 3.0 3.0 0.00 0.00 0.00 76 1001.4
20260509144645 67 241 2.0 2.0 0.00 0.00 0.00 77 1001.5
20260509144142 67 221 4.0 5.0 0.00 0.00 0.00 76 1001.4
20260509143639 67 235 5.0 8.0 0.00 0.00 0.00 75 1001.5
20260509143137 66 217 1.0 1.0 0.00 0.00 0.00 77 1001.2
20260509142632 66 303 1.0 1.0 0.00 0.00 0.00 78 1001.6
20260509142129 67 244 3.0 5.0 0.00 0.00 0.00 77 1001.4
20260509141624 65 298 0.0 1.0 0.00 0.00 0.00 79 1001.5
20260509141121 66 320 1.0 2.0 0.00 0.00 0.00 78 1001.2
20260509140618 67 306 2.0 3.0 0.00 0.00 0.00 77 1001.4
20260509140116 66 213 1.0 2.0 0.00 0.00 0.00 77 1001.1
20260509135613 67 176 1.0 1.0 0.00 0.00 0.00 77 1001.4
20260509135111 66 74 1.0 1.0 0.00 0.00 0.00 77 1001.3
20260509134607 66 214 2.0 2.0 0.00 0.00 0.00 78 1001.2
20260509134105 65 311 2.0 3.0 0.00 0.00 0.00 79 1001.2
20260509133602 64 191 3.0 5.0 0.00 0.00 0.00 79 1001.2
20260509133059 64 273 1.0 1.0 0.00 0.00 0.00 81 1001.2
20260509132557 64 186 3.0 5.0 0.00 0.00 0.00 81 1001.4
20260509132055 64 163 2.0 2.0 0.00 0.00 0.00 80 1001.4
20260509131551 63 327 3.0 3.0 0.00 0.00 0.00 82 1001.1
20260509131048 62 192 4.0 6.0 0.00 0.00 0.00 82 1001.0
20260509130544 62 247 3.0 3.0 0.00 0.00 0.00 83 1001.3
20260509130041 63 227 3.0 3.0 0.00 0.00 0.00 82 1001.3
20260509125537 62 217 3.0 3.0 0.00 0.00 0.00 83 1001.5
20260509125034 62 140 0.0 0.0 0.00 0.00 0.00 85 1001.4
20260509124530 61 293 1.0 1.0 0.00 0.00 0.00 84 1001.7
20260509124028 60 105 1.0 1.0 0.00 0.00 0.00 86 1001.3
20260509123526 60 151 2.0 3.0 0.00 0.00 0.00 86 1001.2
20260509123021 59 164 1.0 1.0 0.00 0.00 0.00 88 1001.2
20260509122518 59 208 0.0 1.0 0.00 0.00 0.00 88 1001.3
20260509122015 58 216 1.0 2.0 0.00 0.00 0.00 88 1001.4
20260509121512 57 183 1.0 1.0 0.00 0.00 0.00 90 1001.1
20260509121010 57 152 0.0 0.0 0.00 0.00 0.00 91 1001.0
20260509120508 56 293 1.0 2.0 0.00 0.00 0.00 91 1001.2
20260509120005 56 232 0.0 0.0 0.00 0.00 0.00 91 1001.1